Wind_Speed
19 19 19 19 18 18 18 18 18 19 19 19 18 18 16 15 15 15 15 16 14 11 10 8 8 8 7 9 11 16 16 15 15 12 15 18 23 24 16 15 15 14 8 13 12 7 9
24 24 24 25 25 24 21 19 17 16 16 18 19 19 20 18 17 17 17 16 18 15 13 13 10 10 9 10 12 15 19 19 17 17 15 18 20 23 21 17 16 20 13 20 15 11 7
17 18 20 21 20 19 21 20 21 21 18 16 16 18 19 19 21 21 19 19 17 17 16 15 15 13 12 10 13 17 20 22 21 20 20 18 19 19 23 20 16 19 22 13 15 12 11
25 28 31 31 31 27 21 19 20 21 24 23 18 16 17 18 18 22 22 21 21 21 19 19 18 17 14 13 13 16 21 25 26 24 24 21 18 19 22 20 17 15 17 14 12 13 11
28 30 30 31 29 29 28 26 23 21 19 20 23 22 20 19 21 21 21 23 23 22 22 22 21 19 18 16 15 16 19 24 27 27 24 25 22 18 18 21 21 20 13 14 18 17 17
28 30 33 33 29 27 26 26 25 24 22 19 19 19 23 25 24 24 24 24 24 25 22 23 23 21 20 17 17 18 19 24 27 27 27 25 25 21 19 20 18 21 14 16 24 24 18
29 33 37 36 31 28 24 22 22 22 21 21 21 20 20 22 26 25 24 24 23 24 24 23 22 23 21 20 18 17 19 24 29 29 29 27 25 25 23 25 30 26 23 22 22 22 20
29 33 38 40 37 32 27 24 22 22 20 22 22 19 18 19 21 24 22 22 22 23 24 25 23 23 22 21 20 20 20 23 28 31 30 28 27 31 32 26 23 23 24 25 23 20 21
32 35 39 42 42 37 31 29 26 25 23 23 23 21 21 22 22 23 22 20 21 21 23 24 24 23 22 22 22 22 22 23 28 32 32 30 34 30 30 32 30 26 25 29 27 30 21
36 38 41 43 45 41 37 32 30 28 26 26 25 24 22 21 21 23 24 22 21 21 23 25 26 25 24 24 23 22 23 23 26 31 33 35 36 33 33 32 33 32 30 29 29 26 24
35 37 41 43 46 43 39 35 31 30 29 29 28 26 24 21 19 21 21 18 17 17 22 26 26 24 26 26 23 23 22 23 24 26 31 37 35 35 36 34 33 33 35 31 32 34 28
36 37 39 42 44 43 40 37 31 32 31 30 29 26 23 21 21 24 25 18 13 15 21 21 23 26 25 26 26 23 23 23 22 23 27 36 35 36 36 38 34 37 31 35 32 31 33
37 39 39 41 43 43 41 38 33 32 31 31 28 25 23 23 22 20 19 17 13 18 16 20 22 24 26 26 25 23 23 22 24 23 27 30 32 36 36 35 36 34 33 32 36 36 33
38 38 39 40 40 43 42 40 36 33 30 30 27 22 23 23 21 20 13 15 14 14 18 17 20 22 23 23 24 24 23 23 23 26 25 29 32 34 36 36 35 35 35 29 25 27 27
39 39 38 40 40 42 42 40 36 33 30 29 27 23 22 24 21 20 14 9 14 13 16 20 19 20 21 21 21 22 22 23 24 26 28 27 34 33 36 37 36 37 37 34 27 24 29
39 38 38 41 41 43 42 40 36 30 28 28 26 24 23 24 22 20 15 10 12 12 17 23 22 21 19 19 21 22 22 21 22 25 27 28 28 32 36 38 38 39 39 39 40 31 25
40 38 40 43 45 43 41 40 36 31 28 27 26 25 25 25 23 20 17 14 12 12 15 23 23 23 20 19 19 20 20 19 20 22 24 26 25 29 32 35 36 39 40 41 34 34 24
41 41 45 45 44 44 42 40 36 32 28 27 25 25 26 24 22 20 18 16 12 12 18 25 28 26 24 21 21 21 21 21 20 20 21 23 24 14 21 38 38 39 41 43 39 42 42
45 47 49 48 45 45 43 39 36 31 30 28 27 26 24 24 22 19 18 18 14 14 16 18 25 25 24 25 26 26 25 24 24 23 22 24 23 19 24 33 36 36 40 41 43 44 32
50 52 51 46 46 44 43 40 35 31 29 29 27 26 25 24 22 19 18 19 17 17 20 24 25 27 28 29 29 28 28 27 26 25 25 26 27 26 18 24 24 37 38 39 39 37 37
55 55 52 49 47 43 41 39 36 32 29 29 28 26 24 24 23 19 18 22 19 20 23 26 27 27 29 31 30 30 29 28 27 27 28 29 31 29 34 33 36 39 37 39 38 42 43
57 54 51 48 45 42 41 37 34 31 32 29 30 29 26 26 26 23 21 23 24 22 24 26 28 28 28 30 29 27 27 28 29 26 27 29 35 32 32 34 35 37 40 42 42 42 42
55 52 50 45 43 42 42 38 34 31 30 30 29 31 30 28 26 25 26 25 28 26 25 26 26 27 29 29 28 27 28 28 27 27 28 29 32 30 32 37 37 38 37 42 45 47 43
51 51 48 44 42 42 42 40 36 35 33 32 32 29 30 26 24 26 25 27 29 28 26 26 26 26 26 27 27 27 26 26 25 25 27 28 30 33 35 42 38 31 42 43 47 48 45
49 48 47 46 46 44 42 40 38 36 34 33 34 33 27 23 23 25 26 28 26 26 26 26 24 24 25 25 23 22 23 24 24 25 25 27 29 32 34 38 37 43 46 44 40 45 49
51 50 50 51 49 47 46 46 42 39 36 33 34 35 27 21 23 26 26 26 27 28 28 24 21 20 20 21 20 19 22 23 24 24 25 26 27 29 32 34 36 38 47 43 40 41 48
48 43 44 46 46 47 45 43 42 42 38 42 37 36 21 19 26 27 26 30 30 30 27 22 18 18 18 18 20 20 21 20 19 16 17 19 20 21 26 32 37 45 41 40 41 42 43
43 46 46 48 47 45 45 41 40 35 34 46 33 27 28 30 35 27 29 33 32 27 22 18 17 16 17 17 18 19 20 18 17 13 15 18 20 24 27 30 31 36 45 45 41 41 43
48 46 46 47 45 42 40 40 39 45 40 26 37 25 24 27 31 30 29 29 26 21 18 17 16 14 15 16 17 17 17 18 19 19 21 26 27 29 29 35 34 36 35 42 45 42 42
Wind_Direction
11 8 2 355 344 341 336 330 323 317 310 304 299 296 292 287 283 276 274 263 264 266 258 251 267 268 264 251 234 229 228 226 219 214 208 199 200 205 196 192 191 199 212 197 178 163 135
10 6 360 351 342 335 330 326 320 314 311 307 301 298 290 281 278 280 275 271 263 259 257 253 253 254 257 254 235 227 226 224 221 216 217 212 206 202 205 203 196 205 203 188 199 198 186
1 5 8 6 352 326 314 305 307 310 310 305 301 298 294 290 273 269 271 269 259 257 253 254 258 251 251 249 243 225 221 220 217 216 214 220 215 206 207 210 202 193 194 201 182 197 189
5 3 360 357 353 349 338 328 309 299 301 304 303 292 285 285 283 269 264 264 262 256 248 247 254 253 246 250 249 228 220 218 216 213 217 215 218 216 208 207 211 203 219 187 180 189 197
6 3 0 357 353 343 340 340 332 327 316 302 295 296 295 286 279 272 267 263 259 256 249 245 249 250 247 245 243 230 223 221 218 216 214 217 214 217 213 211 212 219 218 200 201 208 205
6 4 3 359 355 343 338 335 331 333 329 318 305 291 286 287 285 274 269 264 259 255 247 245 249 249 247 248 247 231 219 217 216 219 216 216 216 212 212 218 222 218 204 211 215 188 195
3 5 5 2 0 353 346 338 335 333 330 323 320 310 296 288 286 284 272 266 260 254 251 248 246 244 244 241 250 234 220 216 211 214 219 215 214 214 214 213 204 215 209 207 221 191 197
355 0 1 3 3 1 355 349 342 344 334 327 324 319 307 298 290 289 281 269 260 258 252 248 244 241 242 240 242 238 218 216 215 213 215 215 215 212 217 216 220 216 221 222 218 202 189
349 351 357 358 359 360 359 353 348 346 341 328 327 319 305 298 291 290 290 274 265 259 251 247 240 235 234 233 234 237 228 215 215 214 213 212 216 213 214 217 216 223 217 218 216 224 201
348 348 350 353 354 356 357 353 347 342 338 331 329 324 311 303 300 295 291 281 266 254 245 242 234 228 226 229 232 234 230 220 215 217 214 214 215 215 216 216 218 218 225 226 225 225 215
347 346 346 347 349 351 352 350 344 339 337 336 330 328 319 313 312 311 300 291 274 249 237 233 230 227 223 224 225 227 230 226 218 216 216 222 217 218 217 216 217 218 219 226 224 229 221
342 343 341 343 347 347 348 347 341 337 339 336 333 327 324 321 321 309 294 286 268 242 242 241 232 228 225 222 221 220 225 225 220 212 214 225 219 219 222 220 214 222 221 225 230 229 235
336 337 340 342 344 344 344 345 340 336 337 335 334 330 324 325 326 318 293 267 259 239 230 232 233 226 225 223 220 218 219 225 225 215 215 220 221 222 223 227 222 221 224 226 227 229 237
331 334 336 339 341 342 340 340 337 335 331 332 330 326 324 327 331 336 321 256 252 253 237 228 226 224 222 219 220 221 221 224 225 223 224 219 225 224 223 224 225 222 225 225 234 232 239
328 331 333 335 336 338 337 336 334 331 327 327 328 319 316 317 328 327 334 265 252 253 237 227 221 219 218 216 221 222 217 219 221 224 224 222 230 225 226 225 225 228 223 224 224 222 212
327 329 330 331 332 333 334 332 330 324 321 321 323 314 311 314 318 317 316 289 254 253 243 221 216 217 221 219 223 225 223 217 219 223 223 222 233 228 227 229 227 227 225 227 231 230 231
324 326 328 328 329 329 329 328 326 320 314 315 318 319 310 310 313 308 303 295 274 254 227 214 215 209 209 217 217 227 230 225 220 222 224 226 222 231 228 230 232 227 229 229 229 231 231
320 321 323 325 325 326 325 324 320 317 308 309 312 314 312 307 307 297 291 286 273 251 229 218 216 209 209 220 226 228 229 225 226 226 227 224 215 221 222 230 231 232 226 227 229 231 234
314 317 318 321 322 321 319 320 318 312 305 303 307 313 310 302 301 288 276 271 254 225 201 199 200 205 215 221 229 234 235 232 231 230 230 229 222 219 237 236 232 233 232 229 230 230 225
313 315 316 317 318 316 315 314 312 305 299 297 300 308 308 300 297 279 266 257 249 234 224 213 210 212 220 226 230 234 237 238 236 236 236 234 232 215 208 219 225 234 234 232 227 228 229
310 311 313 314 314 311 309 309 306 299 293 292 295 298 302 300 294 271 263 251 240 231 228 227 229 228 229 234 235 237 238 238 238 239 242 241 240 229 227 220 221 232 233 232 230 226 224
308 309 310 311 308 305 303 302 301 295 289 287 291 291 296 296 289 270 255 249 240 233 230 230 233 236 239 242 246 248 249 247 246 248 241 237 241 240 235 233 234 236 237 238 234 233 231
306 307 307 305 304 300 299 298 296 288 286 283 286 288 287 289 280 267 255 244 242 240 236 234 235 236 240 243 245 248 253 255 253 244 240 235 238 237 238 244 237 238 239 239 238 237 235
305 306 304 301 299 295 294 292 289 285 280 283 287 289 290 280 268 257 251 243 238 241 240 237 238 239 241 245 250 253 251 248 245 242 240 239 237 236 235 243 241 242 240 239 239 239 238
299 300 297 296 294 290 288 286 282 281 281 283 288 289 280 273 257 248 249 246 245 246 244 239 239 239 242 248 246 245 245 247 248 247 245 243 242 243 239 243 243 245 248 243 240 241 238
296 296 294 292 290 291 290 289 281 278 280 280 280 284 267 270 256 241 241 245 249 254 252 242 237 241 240 243 246 247 247 250 248 250 250 249 247 246 245 243 245 243 245 243 241 240 238
297 298 297 296 295 290 287 288 285 281 276 272 279 271 249 250 252 245 242 243 243 246 246 239 234 232 235 239 241 242 245 248 250 239 241 243 245 250 250 247 243 245 245 245 240 237 239
295 298 298 299 296 291 286 283 288 282 260 276 267 266 250 253 242 249 245 240 237 240 234 227 228 229 234 234 236 244 240 220 224 239 250 254 256 261 258 258 254 255 243 240 238 236 237
295 297 298 299 297 292 286 283 282 270 265 257 268 246 235 238 243 248 244 246 235 225 218 224 232 227 224 237 239 219 226 231 234 246 260 264 268 270 266 262 262 257 254 237 233 233 230
Height
5898 5895 5893 5890 5887 5885 5883 5880 5878 5877 5876 5874 5874 5874 5873 5872 5871 5871 5870 5871 5872 5874 5874 5874 5874 5874 5875 5876 5878 5879 5882 5884 5886 5889 5890 5891 5895 5898 5902 5904 5907 5909 5911 5913 5915 5916 5917
5896 5893 5890 5887 5884 5882 5879 5878 5876 5873 5872 5870 5869 5869 5869 5869 5869 5868 5868 5867 5868 5869 5870 5871 5871 5871 5872 5873 5874 5875 5878 5881 5884 5886 5888 5890 5892 5897 5902 5904 5907 5909 5909 5912 5914 5916 5918
5898 5895 5891 5888 5884 5879 5876 5873 5870 5869 5868 5866 5865 5864 5863 5863 5864 5863 5863 5864 5864 5865 5865 5867 5867 5868 5868 5870 5870 5871 5874 5877 5880 5883 5885 5888 5891 5895 5899 5902 5905 5906 5910 5910 5913 5915 5917
5897 5893 5889 5885 5880 5876 5872 5870 5867 5865 5863 5862 5861 5859 5858 5857 5857 5857 5857 5858 5858 5859 5860 5861 5862 5863 5864 5865 5866 5867 5869 5871 5875 5878 5882 5886 5889 5893 5896 5901 5903 5905 5908 5911 5913 5914 5916
5896 5892 5887 5883 5878 5873 5868 5866 5863 5860 5859 5857 5856 5854 5853 5852 5851 5850 5850 5851 5852 5852 5853 5855 5857 5857 5859 5861 5862 5863 5864 5867 5871 5875 5879 5883 5887 5891 5895 5898 5901 5904 5906 5910 5913 5914 5916
5895 5891 5886 5881 5876 5871 5866 5863 5859 5856 5854 5851 5849 5849 5847 5846 5845 5844 5843 5843 5844 5845 5846 5848 5850 5853 5853 5856 5857 5858 5859 5862 5866 5871 5875 5879 5884 5888 5891 5894 5899 5902 5908 5906 5910 5912 5915
5894 5889 5884 5880 5874 5869 5864 5861 5857 5853 5850 5847 5845 5844 5842 5840 5838 5836 5836 5837 5838 5840 5840 5841 5843 5845 5847 5850 5852 5853 5855 5857 5861 5865 5870 5875 5879 5884 5887 5889 5890 5896 5903 5906 5906 5909 5913
5892 5887 5882 5877 5872 5867 5862 5858 5854 5851 5847 5844 5841 5838 5835 5833 5830 5829 5829 5830 5831 5833 5833 5834 5835 5838 5841 5843 5846 5848 5851 5853 5856 5860 5864 5871 5874 5876 5879 5886 5890 5893 5897 5901 5905 5907 5910
5888 5884 5879 5874 5869 5864 5859 5855 5851 5848 5844 5839 5837 5834 5831 5827 5824 5823 5823 5823 5824 5825 5827 5827 5828 5831 5834 5837 5840 5843 5845 5848 5850 5855 5860 5865 5867 5871 5875 5880 5886 5890 5894 5896 5901 5903 5908
5885 5880 5875 5871 5866 5860 5856 5852 5848 5845 5840 5835 5832 5829 5825 5822 5820 5817 5816 5815 5815 5816 5819 5821 5821 5823 5827 5830 5833 5837 5840 5843 5846 5850 5854 5858 5861 5866 5870 5874 5880 5885 5888 5891 5895 5901 5907
5882 5877 5871 5866 5862 5857 5852 5848 5844 5840 5836 5832 5827 5824 5821 5817 5816 5814 5811 5808 5809 5810 5811 5813 5815 5818 5820 5824 5828 5830 5834 5838 5840 5844 5851 5852 5858 5861 5864 5868 5874 5879 5883 5887 5890 5895 5900
5879 5874 5868 5863 5858 5853 5849 5845 5840 5836 5833 5828 5823 5820 5817 5814 5811 5809 5805 5804 5803 5805 5805 5809 5810 5812 5816 5818 5821 5824 5828 5833 5836 5839 5844 5844 5851 5856 5859 5862 5868 5870 5879 5883 5887 5892 5894
5875 5870 5865 5859 5854 5849 5844 5840 5836 5831 5828 5823 5819 5815 5812 5810 5805 5800 5798 5798 5799 5799 5800 5803 5805 5808 5810 5814 5816 5819 5823 5827 5831 5835 5838 5840 5845 5849 5855 5859 5864 5869 5873 5879 5883 5884 5888
5870 5865 5860 5855 5850 5845 5839 5835 5830 5826 5823 5819 5814 5810 5808 5805 5801 5797 5792 5793 5793 5794 5795 5797 5800 5803 5806 5809 5811 5814 5818 5822 5825 5829 5833 5836 5840 5844 5849 5853 5858 5863 5868 5874 5879 5884 5888
5864 5859 5855 5850 5845 5840 5834 5829 5826 5821 5817 5814 5809 5805 5803 5800 5797 5794 5791 5788 5788 5789 5791 5793 5796 5798 5801 5804 5807 5810 5813 5815 5819 5823 5827 5831 5833 5838 5842 5846 5852 5856 5861 5869 5870 5875 5879
5857 5853 5848 5843 5838 5833 5828 5823 5819 5816 5811 5807 5804 5800 5797 5795 5792 5791 5789 5785 5783 5784 5785 5787 5790 5794 5797 5799 5802 5805 5807 5810 5813 5816 5819 5823 5827 5830 5835 5839 5844 5848 5853 5859 5863 5868 5874
5850 5845 5841 5836 5831 5826 5821 5816 5812 5808 5805 5801 5797 5794 5791 5789 5788 5786 5784 5781 5779 5779 5779 5782 5785 5789 5792 5794 5797 5799 5801 5805 5807 5810 5813 5817 5822 5824 5828 5832 5835 5841 5845 5852 5858 5862 5870
5841 5837 5832 5828 5823 5818 5814 5809 5805 5801 5797 5794 5790 5788 5784 5782 5782 5780 5778 5776 5774 5773 5774 5776 5779 5782 5785 5789 5791 5793 5796 5799 5802 5805 5808 5811 5815 5819 5823 5821 5826 5831 5837 5841 5848 5855 5859
5832 5828 5824 5819 5815 5810 5806 5801 5797 5794 5790 5787 5784 5781 5777 5776 5774 5773 5772 5771 5769 5769 5770 5771 5774 5777 5780 5782 5786 5787 5790 5794 5797 5799 5802 5806 5810 5814 5814 5817 5819 5823 5827 5833 5839 5845 5851
5821 5817 5813 5808 5804 5800 5796 5792 5788 5784 5781 5779 5777 5773 5771 5768 5766 5764 5765 5764 5764 5763 5765 5766 5768 5770 5774 5776 5779 5782 5784 5788 5791 5793 5796 5799 5802 5806 5815 5812 5813 5814 5818 5823 5830 5836 5843
5810 5805 5801 5797 5793 5789 5785 5781 5778 5775 5772 5769 5767 5765 5762 5760 5759 5758 5757 5759 5757 5757 5758 5759 5761 5764 5767 5769 5772 5775 5778 5782 5784 5786 5789 5792 5794 5798 5799 5802 5804 5805 5809 5813 5819 5823 5829
5797 5793 5789 5785 5781 5777 5774 5770 5766 5764 5762 5760 5758 5756 5753 5752 5750 5749 5749 5750 5750 5750 5751 5753 5755 5758 5760 5762 5764 5767 5769 5772 5774 5778 5780 5783 5784 5788 5792 5795 5797 5799 5802 5805 5809 5813 5818
5783 5779 5776 5772 5769 5766 5762 5759 5756 5753 5750 5748 5746 5745 5742 5742 5740 5740 5740 5741 5743 5743 5744 5746 5749 5751 5752 5755 5757 5759 5761 5763 5766 5768 5770 5774 5776 5781 5784 5783 5787 5791 5795 5798 5800 5803 5809
5770 5767 5763 5759 5756 5752 5749 5748 5745 5742 5740 5738 5736 5734 5732 5731 5729 5729 5729 5731 5734 5736 5738 5739 5741 5743 5746 5747 5749 5752 5753 5755 5757 5760 5763 5765 5769 5771 5776 5774 5779 5786 5782 5786 5790 5793 5800
5756 5753 5749 5746 5742 5740 5736 5734 5732 5730 5728 5726 5724 5723 5721 5721 5720 5720 5721 5722 5725 5728 5730 5731 5734 5736 5738 5740 5742 5743 5745 5748 5749 5752 5755 5758 5761 5762 5766 5769 5774 5772 5771 5777 5782 5786 5789
5742 5739 5735 5732 5728 5725 5723 5720 5717 5716 5715 5714 5712 5711 5709 5711 5712 5711 5713 5715 5716 5718 5720 5723 5726 5729 5731 5732 5735 5737 5738 5740 5743 5745 5746 5749 5751 5754 5755 5758 5761 5760 5760 5767 5772 5775 5777
5727 5724 5721 5717 5714 5710 5707 5705 5702 5701 5701 5700 5699 5697 5697 5700 5702 5702 5704 5707 5708 5710 5712 5716 5720 5723 5725 5727 5729 5731 5732 5734 5736 5737 5739 5741 5742 5744 5744 5746 5748 5746 5751 5757 5760 5767 5767
5713 5710 5706 5702 5698 5694 5692 5690 5688 5687 5686 5686 5686 5686 5688 5691 5691 5693 5695 5697 5698 5702 5706 5711 5715 5717 5719 5720 5723 5724 5726 5728 5730 5732 5733 5734 5736 5736 5737 5736 5737 5738 5740 5744 5750 5754 5759
5701 5696 5692 5688 5683 5679 5676 5675 5674 5674 5675 5675 5676 5677 5678 5680 5683 5684 5686 5689 5691 5695 5701 5705 5708 5710 5713 5715 5717 5719 5722 5723 5725 5727 5727 5727 5727 5726 5726 5724 5726 5726 5727 5731 5737 5742 5748